Miscellaneous Local Product
Issued by NWS North Platte, NE

Home | Current Version | Previous Version | Text Only | Print | Product List | Glossary On
Versions: 1 2 3 4 5 6 7 8 9 10 11 12 13 14 15 16 17 18 19 20 21 22 23 24 25 26 27 28 29 30 31 32 33 34 35 36 37 38 39 40 41 42 43 44 45 46 47 48 49 50
009
AXUS43 KLBF 262210
MISLBF


WESTERN AND NORTH CENTRAL NEBRASKA HOURLY WEATHER ROUNDUP
NATIONAL WEATHER SERVICE NORTH PLATTE NE
500 PM CDT TUE JUL 26 2016

NOTE: "FAIR" INDICATES FEW OR NO CLOUDS BELOW 12,000 FEET WITH NO
SIGNIFICANT WEATHER AND/OR OBSTRUCTIONS TO VISIBILITY.

NOTE: STATIONS NOT REPORTING VARIABLES SUCH AS SKY/WEATHER OR
PRESSURE ARE PROVIDED BY RAWS AND APRS NETWORKS AND ARE NOT UNDER
NATIONAL WEATHER SERVICE QUALITY CONTROL.

...OBSERVATIONS IN AND NEAR THE EASTERN PANHANDLE OF NEBRASKA...

CITY           SKY/WX    TMP DP  RH WIND       PRES   REMARKS
PINE RIDGE     PTSUNNY   94  60  32 VRB7      29.96F HX  94
CHADRON        SUNNY     96  58  27 VRB6      29.95F HX  95
ALLIANCE       CLOUDY    93  58  30 S13       29.98F HX  92
SIDNEY         CLOUDY    93  51  23 SW9       30.03F HX  90
CRESCENT LAKE    N/A     88  64  44 SE7G14      N/A
$$

...OBSERVATIONS IN NORTHERN NEBRASKA AND FAR SOUTHERN SOUTH DAKOTA...

CITY           SKY/WX    TMP DP  RH WIND       PRES   REMARKS
WINNER         PTSUNNY   95  61  32 SE10      29.94F HX  95
VALENTINE      SUNNY     94  59  31 S12       29.96S HX  93
THEDFORD       CLOUDY    91  67  45 S18G29    29.99F HX  93
AINSWORTH      SUNNY     90  64  42 S14       29.98S HX  91
O`NEILL        SUNNY     89  57  33 S10G16    30.00S
ORD            SUNNY     86  63  45 S17       29.97F
BROKEN BOW     SUNNY     85  66  53 S16G25    29.99F
VALENTINE NWR    N/A     92  63  38 S10G20      N/A  HX  93
BUTTE            N/A     88  63  43 SE9G17      N/A
HALSEY           N/A     86  65  49 S10G20      N/A
EWING            N/A     88  70  54 S7          N/A  HX  92
$$

...OBSERVATIONS IN SOUTHWEST NEBRASKA AND FAR NORTHEAST COLORADO...

CITY           SKY/WX    TMP DP  RH WIND       PRES   REMARKS
WRAY           FAIR      90  55  31 S10       30.02S
HOLYOKE        FAIR      95  64  36 W12       30.01S HX  97
IMPERIAL       SUNNY     92  61  35 S17       29.99F HX  92
OGALLALA       SUNNY     94  58  30 S14       29.98F HX  93
NORTH PLATTE   SUNNY     88  68  51 SE13      29.99F HX  91
MCCOOK         MOSUNNY   92  64  39 SE14      29.98F HX  93
LEXINGTON      SUNNY     86  65  48 SE14      30.01F
STAPLETON        N/A     87  70  57 CALM        N/A  HX  92
GOTHENBURG       N/A     85  62  46 SE12        N/A
CALLAWAY         N/A     85  71  62 S14         N/A  HX  90
$$

...OBSERVATIONS IN CENTRAL LINCOLN COUNTY AREA...

CITY           SKY/WX    TMP DP  RH WIND       PRES   REMARKS
N.P. AIRPORT   SUNNY     88  68  51 SE13      29.99F HX  91
N.P. DOWNTOWN    N/A     88  68  51 SE5G12      N/A  HX  91
N.P. SOUTHEAST   N/A     87  68  53 SE8G16      N/A  HX  90
N.P. HILLCREST   N/A     87  69  54 SE13G20     N/A  HX  91
$$

...SOME OBSERVATIONS FROM AROUND THE REGION...

CITY           SKY/WX    TMP DP  RH WIND       PRES   REMARKS
DENVER         CLOUDY    92  35  13 NE8       30.12F
LARAMIE        CLOUDY    84  18   8 NW15G23   30.25S
CHEYENNE       CLOUDY    86  42  21 E14G23    30.17F
SCOTTSBLUFF    CLOUDY    93  54  26 S9        30.00S HX  91
RAPID CITY     MOSUNNY   87  56  34 E10       30.00F
BISMARCK       CLOUDY    82  65  56 NE15      30.01R
PIERRE         SUNNY     93  62  35 E17G26    29.90F HX  93
SIOUX FALLS    CLOUDY    85  64  49 SE12      30.01F
OMAHA          MOSUNNY   86  64  47 E8        30.01F
GRAND ISLAND   SUNNY     88  64  44 SE14      30.01F
KANSAS CITY    MOSUNNY   87  66  49 E10       29.99F
WICHITA        PTSUNNY   89  70  53 E10       29.95F HX  94
OKLAHOMA CITY  PTSUNNY   89  71  55 S3        29.93F HX  95
DALLAS         PTSUNNY   98  66  34 E7        29.86F HX 101
AMARILLO       MOSUNNY   97  56  25 E14G20    30.03S HX  95
DODGE CITY     SUNNY     89  66  46 E9        30.01F HX  91
HAYS           SUNNY     90  64  43 S9        29.99F HX  91
GOODLAND       SUNNY     91  64  40 SE15G24   30.02F HX  92
$$




USA.gov is the U.S. government's official web portal to all federal, state and local government web resources and services.